Terug naar catalogus

FENGYUN 1C DEB

ActiefSSO
NORAD 33722·DEBRIS·🇨🇳 China

Gelanceerd May 10, 1999 vanaf Taiyuan Satellite Launch Center

Loading…

Volgende Passages (komende 24 uur)

TLE

VersSource: Space-Track

Epoch: Sep 12, 2026, 18:18 UTC

1 33722U 99025DHK 26255.76271236  .00000657  00000-0  27883-3 0  9995
2 33722  98.5660 267.3806 0157596 175.8827 184.3690 14.22054661960418

Volg FENGYUN 1C DEB in realtime met AllMySat

Download on the App Store